{"data":{"norad_id":67698,"intl_designator":"2026-025F","name":"STARLINK-36697","alt_names":[],"object_type":"PAYLOAD","status":"ACTIVE","operator":null,"country":"US","launch_date":"2026-02-07","launch_site_code":"AFWTR","launch_vehicle":null,"mission":null,"orbit_class":"UNKNOWN","rcs_meters":null,"size_class":null,"mass_kg":null,"dimensions":null,"purposes":["comms"],"wikipedia_slug":null,"has_3d_model":false,"image_url":null,"decayed_at":null,"tle_current":{"epoch":"2026-05-25T00:52:24.034656Z","epoch_age_seconds":86055,"freshness":"FRESH","line1":"1 67698U 26025F   26145.03638929  .00010071  00000+0  31378-3 0  9992","line2":"2 67698  97.2840 256.6631 0000419  40.9774 319.1500 15.33453333 17710","mean_motion":15.33453333,"eccentricity":4.19e-5,"inclination_deg":97.284,"raan_deg":256.6631,"arg_perigee_deg":40.9774,"mean_anomaly_deg":319.15,"bstar":0.00031378,"rev_number":1771,"period_min":93.905694357378,"perigee_km":465.23163228469,"apogee_km":465.80513060565,"semimajor_km":6843.6553814452,"source":"CELESTRAK","updated_at":"2026-05-25T13:38:21.663615Z"}}}